Track LOBACHEVSKY now! 10-day predictions LOBACHEVSKY is classified as:
1 67284U 25313AN 26249.42425485 .00003145 00000-0 13427-3 0 9991 2 67284 97.3862 322.8490 0012070 76.8480 283.4104 15.23565328 38323